Accueil
METAR-TAF:

METAR-TAF

Aéroports :

Meriden-Markham Municipal Airport

Meriden, Connecticut, États-Unis

latitude: 41-30-35N, longitude: 072-49-40W, altitude: 31 m

Observation

Le bulletin a été fait il y a 50 minutes, à 09:53 UTC
Vent 4 kt de ouest
Température 20°C
Humidité 94%
Pression 1014 hPa
Visibilité: 16.1 km
Quelques nuages à une hauteur de 1600 ft

METAR: KMMK 220953Z AUTO 26004KT 10SM FEW016 20/19 A2994 RMK AO2 SLP137 T02000189

Heure: 06:43 (10:43 UTC)


TAF: absent

Observations et prévisions météorologiques de plus de 4000 aéroports (messages METAR et TAF).

Les stations disponibles sont représentées par des disques jaunes et rouges sur la carte.

Passer la souris dessus pour voir le nom de la station.

Cliquer dessus pour voir les observations et prévisions météorologiques.

Pour changer de carte: cliquez sur les boutons verts avec une croix noire pour zoomer, sur le bouton vert avec un tiret pour effectuer un zoom arrière, ou sur les flèches vertes pour les cartes adjacentes.


METAR-TAF: